Overview Statistics Trail Chart Weather Telemetry Raw packets
 

This is the latest recevied weather packets stored in our database for station/object KF6FPU-15. If no packets are shown the sender has not sent any weather packets the latest 10 day(s).

<< 1 2 3 4 5 >>
Time Temp. Humidity Pressure Rain* Wind** Luminosity Snow
1788659577 33.33° C 18% 1012.6 hPa - - - -
1788658977 33.33° C 17% 1012.5 hPa - - - -
1788658377 33.33° C 17% 1012.5 hPa - - - -
1788657777 33.33° C 17% 1012.5 hPa - - - -
1788657177 32.78° C 17% 1012.5 hPa - - - -
1788656577 33.33° C 17% 1012.6 hPa - - - -
1788655977 33.89° C 17% 1012.7 hPa - - - -
1788655377 34.44° C 17% 1012.6 hPa - - - -
1788654177 35° C 17% 1012.5 hPa - - - -
1788653577 34.44° C 17% 1012.5 hPa - - - -
1788652977 35.56° C 17% 1012.5 hPa - - - -
1788652377 37.22° C 17% 1012.4 hPa - - - -
1788651777 37.22° C 17% 1012.3 hPa - - - -
1788651177 38.33° C 17% 1012.3 hPa - - - -
1788650577 37.78° C 17% 1012.3 hPa - - - -
1788649977 40.56° C 16% 1012.3 hPa - - - -
1788649377 43.33° C 16% 1012.4 hPa - - - -
1788648777 44.44° C 16% 1012.5 hPa - - - -
1788647577 43.33° C 16% 1012.8 hPa - - - -
1788646977 42.22° C 16% 1012.7 hPa - - - -
1788646377 43.89° C 16% 1012.8 hPa - - - -
1788645777 43.33° C 16% 1012.8 hPa - - - -
1788645177 44.44° C 16% 1012.9 hPa - - - -
1788644577 45° C 16% 1013 hPa - - - -
1788643977 44.44° C 16% 1013.1 hPa - - - -

* Rain since midnight (hover to see other rain measurements)
** Current wind speed in m/s (hover to see current wind gust speed)